User: anonymous   Login
Location: El Álamo
(40.2307°N, 3.9945°W)
Time: 13:43:46
(UTC+00:00)
Language:

COSMOS 2406 - Orbit

View from above orbital plane
View from above orbital plane
View from above satellite
View from above satellite

Ground track
Ground track

The orbit is defined by the following mean orbital elements,

1 28352U          26140.27665394 +.00000000 +00000-0 -16103-4 0 00004
2 28352  70.9929 157.8185 0010207 195.8016 164.2788 14.12132140    08
Epoch (UTC): 20 May 2026 06:38:22
Eccentricity: 0.0010207
inclination: 70.9929°
perigee height: 845 km
apogee height: 859 km
right ascension of ascending node: 157.8185°
argument of perigee: 195.8016°
revolutions per day: 14.12132140
mean anomaly at epoch: 164.2788°

The dashed part of the orbit path shows where the satellite is in the earth's shadow,  

DLR